RYR5HU EDJA-LDZD

Flight info

Callsign RYR5HU
Flight time N/A
Altitude 31000
Route KPT4B KPT Z999 BEMKI L607 ELMEM N606 GIRIS DCT NIVAS DCT BADOP DCT BABAG DCT PEVAL DCT NAKIT DCT PUL N606 LOS
Aircraft B738/M-SDE2E3FGHIRWXY/LB1

Departure

Time N/A
Airport Memmingen Allgau Airport (EDJA)

Arrival

Time 2026-04-20 19:18
Airport Zadar Airport (LDZD)
Time Latitude Longitude Altitude Speed Heading
2026-04-20 18:22 47.58491 10.31372 19365 ft 392 kts 187°
2026-04-20 18:23 47.55752 10.31642 20039 ft 404 kts 176°
2026-04-20 18:23 47.53006 10.32670 20686 ft 416 kts 166°
2026-04-20 18:23 47.50348 10.34444 21239 ft 429 kts 155°
2026-04-20 18:23 47.47846 10.36948 21855 ft 438 kts 145°
2026-04-20 18:24 47.45585 10.39975 22426 ft 447 kts 137°
2026-04-20 18:24 47.43457 10.43369 22981 ft 452 kts 135°
2026-04-20 18:24 47.41263 10.46656 23524 ft 455 kts 141°
2026-04-20 18:24 47.38811 10.49560 24016 ft 455 kts 150°
2026-04-20 18:25 47.36095 10.52014 24619 ft 453 kts 156°
2026-04-20 18:25 47.33343 10.54150 25153 ft 455 kts 159°
2026-04-20 18:25 47.30491 10.56241 25688 ft 458 kts 159°
2026-04-20 18:25 47.27623 10.58323 26136 ft 463 kts 159°
2026-04-20 18:26 47.24757 10.60428 26809 ft 462 kts 159°
2026-04-20 18:26 47.21864 10.62584 27039 ft 467 kts 158°
2026-04-20 18:26 47.18966 10.64776 27064 ft 465 kts 158°
2026-04-20 18:26 47.16094 10.66859 27076 ft 452 kts 162°
2026-04-20 18:27 47.13237 10.68628 27072 ft 447 kts 165°
2026-04-20 18:27 47.10324 10.70225 27405 ft 452 kts 167°
2026-04-20 18:27 47.07369 10.71770 28156 ft 448 kts 167°
2026-04-20 18:27 47.04478 10.73276 28894 ft 444 kts 167°
2026-04-20 18:28 47.01543 10.74815 29463 ft 444 kts 167°
2026-04-20 18:28 46.98669 10.76358 30030 ft 444 kts 166°
2026-04-20 18:28 46.95763 10.77956 30598 ft 444 kts 166°
2026-04-20 18:28 46.92912 10.79546 30993 ft 445 kts 166°
2026-04-20 18:29 46.87090 10.82816 31024 ft 442 kts 165°
2026-04-20 18:29 46.81417 10.86021 31019 ft 440 kts 164°
2026-04-20 18:30 46.76031 10.90408 31014 ft 456 kts 144°
2026-04-20 18:30 46.71544 10.96998 31003 ft 460 kts 135°
2026-04-20 18:31 46.67356 11.04050 31006 ft 461 kts 134°
2026-04-20 18:31 46.63194 11.11084 31036 ft 461 kts 134°
2026-04-20 18:32 46.58989 11.18059 31019 ft 461 kts 135°
2026-04-20 18:32 46.54733 11.25015 30993 ft 460 kts 135°
2026-04-20 18:33 46.50476 11.31909 30983 ft 461 kts 135°
2026-04-20 18:33 46.46239 11.38762 30970 ft 460 kts 135°
2026-04-20 18:34 46.41949 11.45681 30994 ft 460 kts 135°
2026-04-20 18:34 46.37686 11.52543 30967 ft 460 kts 135°
2026-04-20 18:35 46.33408 11.59413 30974 ft 461 kts 135°
2026-04-20 18:35 46.29136 11.66247 30965 ft 460 kts 136°
2026-04-20 18:36 46.24833 11.73129 30963 ft 461 kts 136°
2026-04-20 18:36 46.20544 11.79981 30961 ft 461 kts 136°
2026-04-20 18:37 46.16222 11.86826 30970 ft 461 kts 136°
2026-04-20 18:37 46.11919 11.93632 30976 ft 468 kts 136°
2026-04-20 18:38 46.09713 11.97113 31088 ft 477 kts 136°
2026-04-20 18:38 46.07459 12.00661 31433 ft 480 kts 136°
2026-04-20 18:38 46.05233 12.04170 31985 ft 477 kts 135°
2026-04-20 18:38 46.03007 12.07677 32562 ft 474 kts 135°
2026-04-20 18:39 46.00788 12.11165 32919 ft 475 kts 136°
2026-04-20 18:39 45.98559 12.14659 32930 ft 478 kts 135°
2026-04-20 18:39 45.94094 12.21655 32929 ft 472 kts 135°
2026-04-20 18:40 45.89661 12.28607 32922 ft 473 kts 135°
2026-04-20 18:40 45.85336 12.35655 32924 ft 474 kts 133°
2026-04-20 18:41 45.81099 12.42800 32920 ft 474 kts 133°
2026-04-20 18:41 45.76821 12.49992 32917 ft 474 kts 133°
2026-04-20 18:42 45.72553 12.57096 32911 ft 474 kts 133°
2026-04-20 18:42 45.68258 12.64213 32905 ft 473 kts 133°
2026-04-20 18:43 45.63945 12.71335 32907 ft 473 kts 134°
2026-04-20 18:43 45.59675 12.78364 32905 ft 473 kts 134°
2026-04-20 18:44 45.55355 12.85458 32905 ft 474 kts 134°
2026-04-20 18:44 45.51020 12.92541 32907 ft 474 kts 134°
2026-04-20 18:45 45.46691 12.99603 32913 ft 474 kts 134°
2026-04-20 18:45 45.42390 13.06622 32920 ft 473 kts 134°
2026-04-20 18:46 45.38158 13.13521 32917 ft 473 kts 134°
2026-04-20 18:46 45.33814 13.20499 32918 ft 474 kts 134°
2026-04-20 18:47 45.29463 13.27427 32916 ft 473 kts 134°
2026-04-20 18:47 45.25109 13.34455 32920 ft 474 kts 134°
2026-04-20 18:48 45.20797 13.41471 32919 ft 474 kts 134°
2026-04-20 18:48 45.16494 13.48449 32925 ft 473 kts 134°
2026-04-20 18:49 45.12147 13.55421 32920 ft 473 kts 134°
2026-04-20 18:49 45.07802 13.62353 32924 ft 474 kts 134°
2026-04-20 18:50 45.03420 13.69326 32927 ft 472 kts 135°
2026-04-20 18:50 44.99063 13.76236 32925 ft 473 kts 135°
2026-04-20 18:51 44.94712 13.83115 32927 ft 473 kts 135°
2026-04-20 18:51 44.90326 13.90040 32924 ft 472 kts 135°
2026-04-20 18:52 44.85958 13.96877 32930 ft 472 kts 136°
2026-04-20 18:52 44.81536 14.03631 32926 ft 471 kts 136°
2026-04-20 18:53 44.77077 14.10395 32929 ft 473 kts 136°
2026-04-20 18:53 44.72641 14.17128 32927 ft 472 kts 135°
2026-04-20 18:54 44.70398 14.20531 32625 ft 474 kts 136°
2026-04-20 18:54 44.68184 14.23890 32339 ft 465 kts 135°
2026-04-20 18:54 44.66015 14.27182 32136 ft 456 kts 135°
2026-04-20 18:54 44.63893 14.30395 31752 ft 451 kts 136°
2026-04-20 18:55 44.61780 14.33585 31325 ft 448 kts 136°
2026-04-20 18:55 44.59668 14.36770 30921 ft 443 kts 136°
2026-04-20 18:55 44.57581 14.39913 30483 ft 440 kts 136°
2026-04-20 18:55 44.55497 14.43047 30017 ft 436 kts 136°
2026-04-20 18:56 44.53467 14.46102 29582 ft 433 kts 136°
2026-04-20 18:56 44.51358 14.49085 29115 ft 428 kts 140°
2026-04-20 18:56 44.49146 14.51875 28663 ft 424 kts 143°
2026-04-20 18:56 44.46932 14.54500 28262 ft 419 kts 144°
2026-04-20 18:57 44.44704 14.57079 27792 ft 416 kts 144°
2026-04-20 18:57 44.42492 14.59633 27363 ft 413 kts 144°
2026-04-20 18:57 44.40273 14.62209 26925 ft 410 kts 143°
2026-04-20 18:57 44.38119 14.64723 26486 ft 407 kts 143°
2026-04-20 18:58 44.35956 14.67261 25854 ft 409 kts 143°
2026-04-20 18:58 44.33802 14.69924 25114 ft 415 kts 140°
2026-04-20 18:58 44.31787 14.72786 24366 ft 420 kts 136°
2026-04-20 18:58 44.29831 14.75846 23618 ft 423 kts 134°
2026-04-20 18:59 44.27934 14.78933 22894 ft 425 kts 133°
2026-04-20 18:59 44.26017 14.82082 22167 ft 427 kts 133°
2026-04-20 18:59 44.24106 14.85210 21444 ft 428 kts 133°
2026-04-20 18:59 44.22161 14.88367 20670 ft 430 kts 133°
2026-04-20 19:00 44.20200 14.91527 19848 ft 433 kts 133°
2026-04-20 19:00 44.18217 14.94704 19029 ft 435 kts 133°
2026-04-20 19:00 44.16256 14.97833 18228 ft 436 kts 133°
2026-04-20 19:00 44.14252 15.01026 17416 ft 437 kts 133°
2026-04-20 19:01 44.12268 15.04182 16620 ft 436 kts 133°
2026-04-20 19:01 44.10268 15.07358 15814 ft 436 kts 133°
2026-04-20 19:01 44.08278 15.10513 15004 ft 435 kts 133°
2026-04-20 19:01 44.06296 15.13649 14205 ft 433 kts 133°
2026-04-20 19:02 44.04341 15.16739 13412 ft 431 kts 133°
2026-04-20 19:02 44.02379 15.19835 12706 ft 426 kts 133°
2026-04-20 19:02 44.00443 15.22890 12362 ft 412 kts 133°
2026-04-20 19:02 43.98579 15.25830 12118 ft 396 kts 133°
2026-04-20 19:03 43.96801 15.28631 11863 ft 383 kts 133°
2026-04-20 19:03 43.95086 15.31329 11612 ft 370 kts 133°
2026-04-20 19:03 43.93413 15.33974 11371 ft 359 kts 133°
2026-04-20 19:03 43.91803 15.36540 11119 ft 348 kts 133°
2026-04-20 19:04 43.90228 15.39057 10868 ft 339 kts 132°
2026-04-20 19:04 43.88718 15.41475 10621 ft 330 kts 132°
2026-04-20 19:04 43.87216 15.43878 10376 ft 322 kts 132°
2026-04-20 19:04 43.85777 15.46176 10124 ft 314 kts 132°
2026-04-20 19:05 43.84356 15.48447 9877 ft 307 kts 132°
2026-04-20 19:05 43.82988 15.50658 9628 ft 301 kts 129°
2026-04-20 19:05 43.82085 15.53177 9371 ft 296 kts 101°
2026-04-20 19:05 43.82121 15.55994 9125 ft 289 kts 74°
2026-04-20 19:06 43.82881 15.58529 8884 ft 285 kts 55°
2026-04-20 19:06 43.84061 15.60698 8639 ft 281 kts 45°
2026-04-20 19:06 43.85525 15.62414 8381 ft 276 kts 25°
2026-04-20 19:06 43.87334 15.63089 8131 ft 269 kts 356°
2026-04-20 19:07 43.89143 15.62642 7888 ft 264 kts 337°
2026-04-20 19:07 43.90816 15.61585 7638 ft 262 kts 329°
2026-04-20 19:07 43.92385 15.60363 7393 ft 262 kts 327°
2026-04-20 19:07 43.93960 15.59088 7128 ft 260 kts 327°
2026-04-20 19:08 43.95535 15.57824 6868 ft 260 kts 328°
2026-04-20 19:08 43.98666 15.55352 6365 ft 258 kts 328°
2026-04-20 19:08 44.00222 15.54129 6112 ft 258 kts 328°
2026-04-20 19:09 44.01767 15.52914 5904 ft 255 kts 328°
2026-04-20 19:09 44.03296 15.51712 5703 ft 249 kts 329°
2026-04-20 19:09 44.04784 15.50541 5493 ft 243 kts 328°
2026-04-20 19:09 44.06239 15.49395 5293 ft 237 kts 329°
2026-04-20 19:10 44.07666 15.48269 5104 ft 232 kts 329°
2026-04-20 19:10 44.09050 15.47177 4896 ft 228 kts 329°
2026-04-20 19:10 44.10422 15.46094 4692 ft 225 kts 329°
2026-04-20 19:10 44.11770 15.45028 4508 ft 224 kts 329°
2026-04-20 19:11 44.13115 15.43965 4319 ft 223 kts 329°
2026-04-20 19:11 44.14474 15.42890 4119 ft 224 kts 329°
2026-04-20 19:11 44.15808 15.41776 3912 ft 222 kts 321°
2026-04-20 19:11 44.16909 15.40290 3711 ft 218 kts 310°
2026-04-20 19:12 44.17932 15.38767 3517 ft 218 kts 315°
2026-04-20 19:12 44.19041 15.37307 3316 ft 218 kts 316°
2026-04-20 19:12 44.20148 15.35875 3128 ft 218 kts 316°
2026-04-20 19:12 44.21239 15.34460 2927 ft 212 kts 316°
2026-04-20 19:13 44.22313 15.33058 2725 ft 207 kts 316°
2026-04-20 19:13 44.23301 15.31696 2535 ft 199 kts 308°
2026-04-20 19:13 44.23724 15.29946 2330 ft 190 kts 261°
2026-04-20 19:13 44.23165 15.28379 2305 ft 181 kts 227°
2026-04-20 19:14 44.22322 15.27060 2288 ft 182 kts 226°
2026-04-20 19:14 44.21487 15.25735 2310 ft 176 kts 226°
2026-04-20 19:14 44.20614 15.24684 2261 ft 163 kts 196°
2026-04-20 19:14 44.19514 15.24690 2306 ft 159 kts 166°
2026-04-20 19:15 44.18466 15.25067 2355 ft 153 kts 156°
2026-04-20 19:15 44.17532 15.25708 2171 ft 148 kts 150°
2026-04-20 19:15 44.16761 15.26576 1857 ft 140 kts 133°
2026-04-20 19:15 44.16115 15.27552 1521 ft 135 kts 133°
2026-04-20 19:16 44.15433 15.28453 1250 ft 136 kts 136°
2026-04-20 19:16 44.14743 15.29368 1038 ft 136 kts 137°
2026-04-20 19:16 44.14069 15.30283 902 ft 138 kts 135°
2026-04-20 19:16 44.13375 15.31224 721 ft 139 kts 136°
2026-04-20 19:17 44.12694 15.32150 540 ft 137 kts 137°
2026-04-20 19:17 44.12017 15.33065 398 ft 136 kts 136°
2026-04-20 19:17 44.11328 15.33988 249 ft 132 kts 137°
2026-04-20 19:17 44.10799 15.34704 248 ft 82 kts 135°
2026-04-20 19:18 44.10488 15.35126 254 ft 54 kts 136°
2026-04-20 19:18 44.10238 15.35468 255 ft 44 kts 136°
2026-04-20 19:18 44.10090 15.35668 255 ft 17 kts 137°
2026-04-20 19:18 44.10017 15.35700 254 ft 10 kts 211°
2026-04-20 19:19 44.09964 15.35637 256 ft 12 kts 223°
2026-04-20 19:19 44.09884 15.35531 260 ft 14 kts 202°
2026-04-20 19:19 44.09792 15.35527 262 ft 12 kts 175°
2026-04-20 19:19 44.09708 15.35536 263 ft 8 kts 176°
2026-04-20 19:20 44.09687 15.35506 264 ft 4 kts 287°
2026-04-20 19:20 44.09691 15.35478 265 ft 2 kts 279°
2026-04-20 19:20 44.09703 15.35442 265 ft 5 kts 316°
2026-04-20 19:20 44.09729 15.35414 265 ft 4 kts 324°
2026-04-20 19:21 44.09733 15.35410 265 ft 0 kts 325°